Satellite: MET-2/21
Catalog number: 22782
Epoch time:      11167.82259757
Element set:     123
Inclination:      082.5467 deg
RA of node:       323.1653 deg
Eccentricity:    0.0024015
Arg of perigee:   099.4695 deg
Mean anomaly:     260.9191 deg
Mean motion:   13.83658802 rev/day
Decay rate:     -.00000000 rev/day^2
Epoch rev:           89850
Checksum:              308

Satellite: MET-3/5
Catalog number: 21655
Epoch time:      11167.83004627
Element set:     136
Inclination:      082.5583 deg
RA of node:       051.0291 deg
Eccentricity:    0.0013856
Arg of perigee:   152.7327 deg
Mean anomaly:     207.4493 deg
Mean motion:   13.17027428 rev/day
Decay rate:        5.1e-07 rev/day^2
Epoch rev:           95367
Checksum:              293

Satellite: OKEAN-0
Catalog number: 25860
Epoch time:      11167.95808116
Element set:     335
Inclination:      097.8846 deg
RA of node:       134.4088 deg
Eccentricity:    0.0001518
Arg of perigee:   038.3597 deg
Mean anomaly:     321.7717 deg
Mean motion:   14.73794058 rev/day
Decay rate:       1.69e-06 rev/day^2
Epoch rev:           64062
Checksum:              326

Satellite: FENGYUN1
Catalog number: 25730
Epoch time:      11167.95824282
Element set:     350
Inclination:      098.8171 deg
RA of node:       129.1594 deg
Eccentricity:    0.0023947
Arg of perigee:   318.3411 deg
Mean anomaly:     041.5934 deg
Mean motion:   14.08632226 rev/day
Decay rate:       5.76e-06 rev/day^2
Epoch rev:           62303
Checksum:              294

/EX
SB KEPS @ AMSAT  $ORB11167.M
Orbital Elements  11167.MISC

HR AMSAT ORBITAL ELEMENTS FOR MANNED AND MISCELLANEOUS SATELLITES
FROM WA5QGD FORT WORTH,TX June 16, 2011
Send Subscribe/unsubscribe to KEPS at http://www.amsat.org/mailman/listinfo/kep
BID: ORB11167.M
TO ALL RADIO AMATEURS BT

Satellite: CAPE1
Catalog number: 31130
Epoch time:      11166.98838260
Element set:     200
Inclination:      097.8970 deg
RA of node:       191.0505 deg
Eccentricity:    0.0102096
Arg of perigee:   184.4270 deg
Mean anomaly:     175.6043 deg
Mean motion:   14.52402969 rev/day
Decay rate:       3.45e-06 rev/day^2
Epoch rev:           22046
Checksum:              278

Satellite: HUBBLE
Catalog number: 20580
Epoch time:      11167.05457208
Element set:     781
Inclination:      028.4720 deg
RA of node:       023.8497 deg
Eccentricity:    0.0003427
Arg of perigee:   111.2522 deg
Mean anomaly:     248.8269 deg
Mean motion:   15.01392892 rev/day
Decay rate:       7.42e-06 rev/day^2
Epoch rev:           95948
Checksum:              300

Satellite: CP6
Catalog number: 35004
Epoch time:      11167.16137849
Element set:     656
Inclination:      040.4585 deg
RA of node:       139.2318 deg
Eccentricity:    0.0021415
Arg of perigee:   231.1528 deg
Mean anomaly:     128.7282 deg
Mean motion:   15.72749584 rev/day
Decay rate:     8.2638e-04 rev/day^2
Epoch rev:           11735
Checksum:              311

Satellite: AAUSAT2
Catalog number: 32788
Epoch time:      11167.16214418
Element set:       4
Inclination:      097.8488 deg
RA of node:       231.2219 deg
Eccentricity:    0.0015242
Arg of perigee:   175.5762 deg
Mean anomaly:     184.5569 deg
Mean motion:   14.82635268 rev/day
Decay rate:      1.004e-05 rev/day^2
Epoch rev:           16942
Checksum:              306

Satellite: DO-64
Catalog number: 32789
Epoch time:      11167.17207721
Element set:      20
Inclination:      097.8584 deg
RA of node:       232.2334 deg
Eccentricity:    0.0015499
Arg of perigee:   173.4584 deg
Mean anomaly:     186.6801 deg
Mean motion:   14.83110635 rev/day
Decay rate:      1.314e-05 rev/day^2
Epoch rev:           16943
Checksum:              307

Satellite: PHARMSAT
Catalog number: 35002
Epoch time:      11167.18622269
Element set:     574
Inclination:      040.4683 deg
RA of node:       176.5813 deg
Eccentricity:    0.0023893
Arg of perigee:   212.4342 deg
Mean anomaly:     147.5001 deg
Mean motion:   15.48659321 rev/day
Decay rate:      8.549e-05 rev/day^2
Epoch rev:           11695
Checksum:              295

Satellite: COMPASS
Catalog number: 32787
Epoch time:      11167.19832111
Element set:      13
Inclination:      097.8476 deg
RA of node:       231.0336 deg
Eccentricity:    0.0015416
Arg of perigee:   175.3514 deg
Mean anomaly:     184.7891 deg
Mean motion:   14.82444919 rev/day
Decay rate:       4.76e-06 rev/day^2
Epoch rev:           16941
Checksum:              306

Satellite: CO-66
Catalog number: 32791
Epoch time:      11167.21477042
Element set:       6
Inclination:      097.8497 deg
RA of node:       230.9919 deg
Eccentricity:    0.0016136
Arg of perigee:   173.9682 deg
Mean anomaly:     186.1759 deg
Mean motion:   14.82135833 rev/day
Decay rate:       7.92e-06 rev/day^2
Epoch rev:           16936
Checksum:              341

Satellite: HAWKSAT1
Catalog number: 35003
Epoch time:      11167.32610145
Element set:     655
Inclination:      040.4519 deg
RA of node:       146.9522 deg
Eccentricity:    0.0021704
Arg of perigee:   232.8059 deg
Mean anomaly:     127.1285 deg
Mean motion:   15.65747541 rev/day
Decay rate:     5.0835e-04 rev/day^2
Epoch rev:           11729
Checksum:              280

